Content
SEND FEEDBACK

Daily
Averages
Monthly
Summary
United States of America

NOVICE, TEXAS


Home > North America > United States > Texas
Elevation: 1980 feet     Latitude: 31 59N     Longitude: 099 37W

WEATHER
 
SELECT A DAY
Number of Records: 66,579;   Date Range: 1/26/04 - 9/17/14
 
SHARE

PRINT THIS DATA

[ ← Previous Day ]
WEATHER ALMANAC - JANUARY 31, 2013
[ Next Day → ]
[ °C ]   °F
Weather ElementAverageHighLow
Temperature50.5 °F67.6 °F (3:55 pm)34 °F (1:35 am)
Dewpoint16.2 °F21.6 °F (11:55 pm)11.5 °F (6:35 am)
Humidity27.5 %42 % (1:35 am)14 % (4:15 pm)
Barometer30.18 in30.25 in (11:15 pm)30.12 in (2:55 pm)
Wind Speed10.2 mph23 mph (10:35 am)
Wind Gust31.1 mph (11:15 am)
Weather ElementAverage
Visibility10 mi
Wind DirectionWSW (249.3 °)

Weather ElementTotal
Precipitation---
Heating Degree Days14.2 (Base 65)
Growing Degree Days0.8 (Base 50)
Averaged from 67 records on January 31, 2013
WEATHER CONDITIONS BREAKOUT
WIND DIRECTION BREAKOUT
WEATHER BY HOUR - JANUARY 31, 2013
[ °C ]   °F
Local TimeTemperatureDewpointHumidityBarometerVisibilityWind DirectionWind SpeedGust SpeedPrecipitationEventsConditions
12:55 AM35.2 °F12.6 °F39 %30.16 in10.0 miWSW (240°)5.8 mphClear
1:15 AM34.9 °F12.7 °F40 %30.15 in10.0 miWSW (240°)5.8 mphClear
1:35 AM34.0 °F12.9 °F42 %30.16 in10.0 miSSW (210°)4.6 mphClear
1:55 AM34.5 °F12.6 °F40 %30.15 in10.0 miWSW (240°)5.8 mphClear
2:15 AM34.9 °F12.6 °F40 %30.16 in10.0 miSW (230°)8.1 mphClear
2:35 AM34.5 °F12.9 °F41 %30.17 in10.0 miSW (230°)5.8 mphClear
2:55 AM35.1 °F12.4 °F39 %30.17 in10.0 miSW (220°)5.8 mphClear
3:15 AM35.6 °F12.6 °F39 %30.16 in10.0 miWSW (250°)5.8 mphClear
3:35 AM37.2 °F12.0 °F36 %30.15 in10.0 miWest (270°)4.6 mphClear
3:55 AM37.8 °F11.8 °F34 %30.15 in10.0 miWSW (240°)3.5 mphClear
4:15 AM36.9 °F11.8 °F36 %30.14 in10.0 miWSW (240°)5.8 mphClear
4:35 AM36.0 °F12.9 °F39 %30.13 in10.0 miWest (270°)4.6 mphClear
5:15 AM37.9 °F12.7 °F36 %30.14 in10.0 miWest (260°)8.1 mphClear
5:35 AM39.4 °F12.4 °F33 %30.13 in10.0 miWest (280°)8.1 mphClear
5:55 AM39.7 °F12.4 °F33 %30.13 in10.0 miWest (270°)8.1 mphClear
6:15 AM39.9 °F12.0 °F32 %30.14 in10.0 miWest (260°)6.9 mphClear
6:35 AM40.5 °F11.5 °F31 %30.15 in10.0 miWSW (250°)11.5 mphClear
6:55 AM39.7 °F12.0 °F32 %30.16 in10.0 miWSW (240°)15.0 mph19.6 mphClear
7:15 AM38.8 °F12.6 °F34 %30.17 in10.0 miSW (220°)10.4 mphClear
7:35 AM37.9 °F12.9 °F36 %30.18 in10.0 miSSW (210°)10.4 mphClear
7:55 AM38.3 °F13.1 °F36 %30.19 in10.0 miSW (230°)11.5 mphClear
8:15 AM40.8 °F13.5 °F33 %30.19 in10.0 miSW (230°)12.7 mph18.4 mphClear
8:35 AM43.7 °F13.8 °F30 %30.20 in10.0 miWSW (240°)15.0 mphClear
8:55 AM45.1 °F14.4 °F29 %30.20 in10.0 miWSW (240°)12.7 mphClear
9:15 AM46.4 °F14.7 °F28 %30.21 in10.0 miSW (230°)13.8 mph20.7 mphClear
9:35 AM48.6 °F15.4 °F27 %30.22 in10.0 miWSW (240°)16.1 mph20.7 mphClear
9:55 AM50.7 °F15.6 °F25 %30.22 in10.0 miWSW (240°)19.6 mph28.8 mphClear
10:15 AM52.9 °F15.8 °F23 %30.22 in10.0 miWSW (240°)20.7 mph27.6 mphClear
10:35 AM54.9 °F16.3 °F22 %30.22 in10.0 miWSW (240°)23.0 mph28.8 mphClear
10:55 AM56.3 °F16.7 °F21 %30.22 in10.0 miWSW (240°)20.7 mph26.5 mphClear
11:15 AM57.7 °F16.2 °F20 %30.22 in10.0 miWSW (250°)19.6 mph31.1 mphClear
11:55 AM60.6 °F16.2 °F18 %30.20 in10.0 miWest (260°)20.7 mph27.6 mphClear
12:15 PM61.5 °F15.8 °F17 %30.19 in10.0 miWest (260°)18.4 mph29.9 mphClear
12:35 PM62.6 °F16.9 °F17 %30.18 in10.0 miWSW (240°)20.7 mph27.6 mphClear
12:55 PM64.0 °F16.3 °F16 %30.18 in10.0 miWSW (250°)21.9 mph29.9 mphClear
1:15 PM64.8 °F16.3 °F15 %30.17 in10.0 miWest (260°)16.1 mph27.6 mphClear
1:35 PM65.1 °F17.1 °F16 %30.17 in10.0 miWest (260°)17.3 mph29.9 mphClear
1:55 PM65.7 °F16.9 °F15 %30.15 in10.0 miWSW (250°)16.1 mph26.5 mphClear
2:15 PM65.8 °F17.2 °F15 %30.13 in10.0 miWSW (240°)19.6 mph25.3 mphClear
2:35 PM66.0 °F17.2 °F15 %30.13 in10.0 miWSW (240°)21.9 mph26.5 mphClear
2:55 PM66.9 °F17.4 °F15 %30.12 in10.0 miWSW (250°)15.0 mph20.7 mphClear
3:15 PM67.3 °F17.8 °F15 %30.13 in10.0 miWest (260°)15.0 mph21.9 mphClear
3:55 PM67.6 °F17.2 °F15 %30.14 in10.0 miWest (280°)17.3 mph21.9 mphClear
4:15 PM67.3 °F16.3 °F14 %30.13 in10.0 miWest (270°)12.7 mph19.6 mphClear
4:35 PM66.7 °F16.5 °F15 %30.14 in10.0 miWest (280°)10.4 mph18.4 mphClear
4:55 PM65.8 °F16.7 °F15 %30.14 in10.0 miWNW (290°)11.5 mph17.3 mphClear
5:15 PM66.4 °F17.8 °F16 %30.14 in10.0 miWest (270°)12.7 mph16.1 mphClear
5:35 PM65.5 °F18.0 °F16 %30.14 in10.0 miWNW (300°)8.1 mphClear
5:55 PM63.3 °F18.1 °F18 %30.15 in10.0 miWNW (300°)4.6 mphClear
6:15 PM61.3 °F18.9 °F19 %30.15 in10.0 miWest (280°)3.5 mphClear
6:35 PM59.5 °F19.2 °F21 %30.16 in10.0 miWest (280°)4.6 mphClear
6:55 PM58.8 °F19.4 °F22 %30.18 in10.0 miWest (280°)3.5 mphClear
7:15 PM58.1 °F19.2 °F22 %30.19 in10.0 miWNW (300°)3.5 mphClear
7:35 PM55.9 °F19.8 °F24 %30.20 in10.0 miNNW (330°)5.8 mphClear
7:55 PM54.5 °F20.1 °F26 %30.21 in10.0 miNNW (330°)6.9 mphClear
8:15 PM54.0 °F19.9 °F26 %30.21 in10.0 miNW (310°)4.6 mphClear
8:35 PM50.7 °F21.2 °F31 %30.21 in10.0 miWNW (300°)6.9 mphClear
8:55 PM50.7 °F21.2 °F31 %30.22 in10.0 miNW (310°)5.8 mphClear
9:15 PM49.5 °F21.2 °F33 %30.22 in10.0 miNW (310°)4.6 mphClear
9:35 PM48.6 °F21.4 °F34 %30.23 in10.0 miWest (280°)4.6 mphClear
9:55 PM48.6 °F20.8 °F34 %30.24 in10.0 miWest (280°)5.8 mphClear
10:15 PM48.6 °F20.7 °F33 %30.24 in10.0 miNW (310°)3.5 mphClear
10:35 PM47.5 °F21.2 °F35 %30.24 in10.0 miNorth (360°)4.6 mphClear
10:55 PM47.3 °F20.8 °F35 %30.24 in10.0 miSouth (190°)3.5 mphClear
11:15 PM48.0 °F20.8 °F34 %30.25 in10.0 miCalmClear
11:35 PM47.1 °F20.8 °F35 %30.25 in10.0 miCalmClear
11:55 PM45.5 °F21.6 °F39 %30.25 in10.0 miCalmClear
Hourly data recorded from KCOM, located miles away from Novice, Texas







STORIES FROM OUR PARTNERS